logo tempoitalia

Diretta Meteo Rimini, Italiavenerdì 23 luglio ore 21:50

Mappa
Sereno 26 °C Sereno 24 Ore: T.min 20 T.max 28
Ponente Nord Km/h 5.5 Punto di rugiada: 18 °C Umidità: 61% Visibilità: 10 Km
Il sole sorge alle: 05:46 Il sole tramonta alle: 20:45
23 Luglio 2021 21:50 tempo osservato: Sereno Sereno 26 61 1013 vento: Nord N 5.5
23 Luglio 2021 21:20 tempo osservato: Sereno Sereno 26 61 1013 vento: Nord N 5.5
23 Luglio 2021 20:50 tempo osservato: Sereno Sereno 26 69 1013 vento: Nord E/SE 11.1
23 Luglio 2021 20:20 tempo osservato: Sereno Sereno 26 69 1012 vento: Nord E 9.3
23 Luglio 2021 19:50 tempo osservato: Sereno Sereno 26 73 1012 vento: Nord E/SE 14.8
23 Luglio 2021 19:20 tempo osservato: Sereno Sereno 27 65 1012 vento: Nord E/SE 16.7
23 Luglio 2021 18:50 tempo osservato: Sereno Sereno 26 73 1013 vento: Nord E 16.7
23 Luglio 2021 18:20 tempo osservato: Sereno Sereno 27 65 1013 vento: Nord E 18.5
23 Luglio 2021 17:50 tempo osservato: Sereno Sereno 28 61 1013 vento: Nord E 14.8
23 Luglio 2021 17:20 tempo osservato: Sereno Sereno 27 65 1013 vento: Nord E 20.3
23 Luglio 2021 16:50 tempo osservato: Sereno Sereno 28 65 1013 vento: Nord E 16.7
23 Luglio 2021 16:20 tempo osservato: Sereno Sereno 28 61 1013 vento: Nord E 16.7
23 Luglio 2021 15:50 tempo osservato: Sereno Sereno 28 65 1013 vento: Nord E 16.7
23 Luglio 2021 15:20 tempo osservato: Sereno Sereno 28 61 1014 vento: Nord E 14.8
23 Luglio 2021 14:20 tempo osservato: Sereno Sereno 28 65 1014 vento: Nord E 14.8
23 Luglio 2021 13:50 tempo osservato: Sereno Sereno 27 69 1014 vento: Nord E/NE 16.7
23 Luglio 2021 13:20 tempo osservato: Sereno Sereno 27 74 1014 vento: Nord E/NE 18.5
23 Luglio 2021 12:50 tempo osservato: Poco Nuvoloso Poco Nuvoloso 27 69 1015 vento: Nord NE 16.7
23 Luglio 2021 12:20 tempo osservato: Sereno Sereno 27 69 1015 vento: Nord E/NE 16.7
23 Luglio 2021 11:50 tempo osservato: Sereno Sereno 26 65 1015 vento: Nord NE 16.7
23 Luglio 2021 11:20 tempo osservato: Sereno Sereno 27 65 1015 vento: Nord N/NE 14.8
23 Luglio 2021 10:50 tempo osservato: Sereno Sereno 26 65 1015 vento: Nord NE 13
23 Luglio 2021 10:20 tempo osservato: Sereno Sereno 26 65 1015 vento: Nord E/NE 9.3
23 Luglio 2021 09:50 tempo osservato: Sereno Sereno 26 65 1015 vento: Nord E/NE 9.3
23 Luglio 2021 09:20 tempo osservato: Sereno Sereno 27 57 1015 vento: Nord N 3.7
23 Luglio 2021 08:50 tempo osservato: Sereno Sereno 25 65 1015 vento: Nord N 1.8
23 Luglio 2021 08:20 tempo osservato: Sereno Sereno 24 64 1015 vento: Nord N 3.7
23 Luglio 2021 07:50 tempo osservato: Sereno Sereno 23 68 1015 vento: Nord N 5.5
23 Luglio 2021 07:20 tempo osservato: Sereno Sereno 22 68 1015 vento: Nord N 3.7
23 Luglio 2021 06:50 tempo osservato: Sereno Sereno 20 77 1015 vento: Nord N 3.7
23 Luglio 2021 06:20 tempo osservato: Sereno Sereno 20 77 1015 vento: Nord N 5.5
23 Luglio 2021 05:50 tempo osservato: Sereno Sereno 20 72 1015 vento: Nord S/SO 7.4
23 Luglio 2021 05:20 tempo osservato: Sereno Sereno 20 72 1015 vento: Nord S/SO 7.4
23 Luglio 2021 04:50 tempo osservato: Sereno Sereno 20 72 1015 vento: Nord N 5.5
23 Luglio 2021 04:20 tempo osservato: Nuvoloso Nuvoloso 20 77 1015 vento: Nord N 5.5
23 Luglio 2021 03:50 tempo osservato: Poco Nuvoloso Poco Nuvoloso 21 68 1015 vento: Nord N 5.5
23 Luglio 2021 03:20 tempo osservato: Sereno Sereno 21 68 1015 vento: Nord N 5.5
23 Luglio 2021 02:50 tempo osservato: Sereno Sereno 21 68 1015 vento: Nord N 5.5
23 Luglio 2021 02:20 tempo osservato: Sereno Sereno 21 68 1015 vento: Nord O 7.4
23 Luglio 2021 01:50 tempo osservato: Sereno Sereno 21 68 1016 vento: Nord N 5.5
23 Luglio 2021 01:20 tempo osservato: Poco Nuvoloso Poco Nuvoloso 21 68 1015 vento: Nord N 1.8
23 Luglio 2021 00:50 tempo osservato: Sereno Sereno 22 64 1015 vento: Nord N 5.5
23 Luglio 2021 00:20 tempo osservato: Sereno Sereno 23 64 1015 vento: Nord N 3.7
22 Luglio 2021 23:50 tempo osservato: Sereno Sereno 23 64 1015 vento: Nord N 3.7
22 Luglio 2021 23:20 tempo osservato: Sereno Sereno 24 60 1015 vento: Nord N 5.5
22 Luglio 2021 22:50 tempo osservato: Sereno Sereno 23 56 1015 vento: Nord N 3.7